Overview Statistics Trail Chart Weather Telemetry Raw packets
 

This is the latest recevied weather packets stored in our database for station/object MeshWX-2. If no packets are shown the sender has not sent any weather packets the latest 10 day(s).

<< 27 28 29 30 31 32 33 >>
Time Temp. Humidity Pressure Rain* Wind** Luminosity Snow
1787873500 18.33° C 48% 884.8 hPa - - - -
1787871610 18.89° C 47% 885 hPa - - - -
1787871520 18.89° C 47% 885 hPa - - - -
1787869635 17.22° C 49% 885.1 hPa - - - -
1787869539 17.22° C 49% 885.1 hPa - - - -
1787867588 18.89° C 48% 885.4 hPa - - - -
1787867499 18.89° C 48% 885.4 hPa - - - -
1787865487 20° C 48% 885.4 hPa - - - -
1787865458 20° C 48% 885.4 hPa - - - -
1787863507 20° C 48% 885.3 hPa - - - -
1787863478 20° C 48% 885.3 hPa - - - -
1787861587 20.56° C 47% 885.2 hPa - - - -
1787861558 20.56° C 47% 885.2 hPa - - - -
1787859606 20° C 48% 885.2 hPa - - - -
1787859578 20° C 48% 885.2 hPa - - - -
1787858665 20° C 48% 885.1 hPa - - - -
1787857686 20° C 48% 885.1 hPa - - - -
1787857657 20° C 48% 885.1 hPa - - - -
1787855766 20° C 48% 885 hPa - - - -
1787855747 20° C 48% 885 hPa - - - -
1787855677 20° C 48% 885 hPa - - - -
1787853785 20.56° C 48% 885 hPa - - - -
1787853767 20.56° C 48% 885 hPa - - - -
1787853696 20.56° C 48% 885 hPa - - - -
1787851805 21.11° C 49% 884.8 hPa - - - -

* Rain since midnight (hover to see other rain measurements)
** Current wind speed in m/s (hover to see current wind gust speed)